Theta_e
302 304 304 304 304 304 304 303 303 303 302 301 300 299 299 299 298 292 288 289 284 275 277 281 281 277 274 272 266 268 269 267 264 263 261 261 263 264 262 267 265 264 264 264 265 263 261 275 273 268 273 276 276 275
301 304 304 303 303 304 304 303 303 302 302 301 300 299 299 298 297 296 288 291 293 283 276 284 285 286 283 280 273 267 269 266 270 261 259 258 258 259 260 262 271 263 266 267 268 268 274 273 273 276 273 275 276 275
301 303 303 303 303 303 303 303 302 302 302 301 300 299 299 298 297 295 287 287 285 274 273 274 277 281 285 285 284 273 268 277 272 273 267 269 265 265 257 260 264 268 269 270 270 273 276 277 279 277 276 276 277 278
301 302 303 303 302 302 302 303 302 302 301 301 300 299 299 298 298 293 286 286 280 272 264 270 281 279 283 284 282 281 278 272 272 276 273 269 265 270 267 269 269 271 270 267 269 274 275 277 277 277 277 277 277 278
300 302 302 302 302 302 302 302 302 301 301 301 300 299 298 298 298 291 289 287 284 275 266 267 274 279 281 281 281 281 280 274 270 273 272 267 270 271 272 269 270 273 271 269 268 274 274 275 277 277 277 277 278 277
301 301 302 302 302 302 302 302 301 300 300 300 299 298 298 297 294 287 279 285 288 287 275 267 272 270 271 275 275 273 274 275 277 269 267 268 275 272 263 261 272 274 274 273 272 270 273 276 275 272 273 274 274 274
300 301 301 302 302 302 301 301 300 300 300 299 298 298 298 296 288 282 276 281 290 285 268 266 262 269 268 265 265 266 267 277 276 273 269 272 272 275 270 267 273 269 269 271 269 269 271 271 268 270 269 269 269 268
299 301 301 301 301 301 301 301 300 299 298 298 298 297 297 294 291 284 285 291 286 273 269 263 262 265 267 264 268 276 274 272 271 269 266 268 269 269 268 263 265 266 267 269 267 267 266 266 266 265 264 264 262 263
300 300 300 300 300 301 300 300 300 298 298 297 296 294 286 282 280 282 291 289 286 274 265 258 257 258 264 264 264 265 270 269 265 269 266 269 263 265 263 264 265 265 264 263 263 263 262 261 261 261 261 261 259 260
300 300 300 300 300 300 300 299 299 298 297 295 288 279 273 278 289 285 278 273 270 268 272 263 258 261 269 262 260 260 265 264 259 264 268 263 261 265 265 266 266 266 265 263 260 260 261 261 260 259 258 258 256 257
300 300 300 300 299 299 299 298 298 297 293 282 276 269 275 283 278 270 263 262 259 258 257 263 262 260 269 263 263 270 265 265 261 262 263 260 260 263 265 265 266 266 265 263 263 262 261 259 258 257 257 258 259 260
299 299 299 299 299 299 298 298 295 286 283 281 276 277 273 271 266 262 253 254 253 258 258 261 262 265 266 269 266 268 266 267 261 266 263 257 261 263 263 263 264 264 262 260 257 258 259 257 255 255 255 256 258 259
299 299 299 299 299 297 297 295 291 288 285 278 272 268 268 262 260 256 254 255 253 254 255 256 261 261 264 268 267 268 265 263 265 262 257 258 261 262 262 261 259 258 255 253 255 255 254 253 252 249 255 258 258 259
299 299 299 298 297 297 294 291 290 288 279 271 267 263 264 257 255 257 257 256 260 258 257 259 260 262 263 265 267 263 264 268 261 257 257 260 261 261 262 262 260 258 253 251 252 251 251 252 254 255 257 258 258 258
298 298 298 297 296 294 292 291 288 281 274 267 268 263 258 259 255 253 251 254 256 255 259 260 258 262 260 262 265 265 262 259 258 257 259 260 261 261 260 260 257 257 253 251 249 250 252 254 256 257 258 258 257 257
298 297 294 296 295 293 290 287 281 273 270 267 265 262 255 259 256 253 251 254 257 260 260 260 254 258 260 259 260 259 258 257 258 259 260 260 259 259 258 255 253 252 250 249 250 251 255 256 257 258 258 257 257 257
294 289 295 294 291 290 290 281 276 268 267 266 264 256 258 256 260 256 254 257 265 261 259 256 256 259 266 263 261 260 258 259 259 258 259 259 258 258 255 252 253 251 252 252 251 255 258 259 259 258 257 257 257 257
288 291 292 291 287 284 275 272 269 267 264 261 263 259 255 254 255 254 254 259 262 259 262 259 262 260 261 260 259 257 258 258 258 258 258 258 259 259 258 256 257 257 256 256 257 258 258 258 258 258 258 259 258 258
288 289 291 290 285 276 271 269 268 264 261 258 257 257 255 254 253 255 254 258 259 260 261 261 260 259 258 260 258 258 256 255 256 257 258 258 258 258 258 258 257 257 258 258 258 258 258 258 258 258 259 259 257 258
291 290 288 288 283 272 267 266 266 265 261 261 257 256 256 256 254 252 253 258 261 259 258 255 256 257 257 257 259 258 258 259 257 255 256 258 259 259 258 258 258 259 259 259 259 259 258 258 258 258 258 257 257 256
285 284 285 279 272 268 263 259 262 258 256 257 253 255 255 254 253 253 255 257 258 251 253 253 256 256 257 257 258 258 258 258 257 256 256 256 259 259 258 259 259 258 258 258 257 257 257 256 257 257 257 256 256 256
282 284 274 275 269 263 263 260 261 257 258 254 254 252 252 253 253 255 256 257 252 251 251 254 255 255 254 255 256 257 256 254 256 258 258 258 257 257 257 257 258 258 257 257 257 256 256 256 255 254 252 250 251 251
281 277 269 267 265 263 260 258 258 254 258 255 252 254 253 254 255 257 256 253 252 252 255 254 254 255 257 257 259 258 257 256 256 256 257 257 258 257 257 257 257 256 257 257 256 253 250 252 248 246 246 246 245 246
274 265 263 260 260 257 254 254 251 252 251 252 252 253 255 253 255 258 254 252 253 256 255 256 255 257 256 256 256 256 256 257 257 257 256 255 256 257 256 255 254 251 250 249 247 245 245 244 246 244 243 242 242 243
266 261 260 256 253 256 251 251 250 254 252 247 251 253 254 249 254 252 254 253 253 256 256 256 256 256 254 255 256 254 255 253 252 253 253 251 250 252 251 249 247 246 247 249 248 245 245 244 244 244 244 243 245 245
257 253 255 251 253 256 250 253 251 252 248 251 250 248 246 250 252 253 253 253 256 256 255 254 253 254 254 253 251 251 251 248 245 246 245 242 242 243 243 244 244 249 244 241 243 244 244 243 242 243 243 242 244 243
254 252 250 251 252 250 251 249 249 251 250 252 249 250 250 251 252 252 251 254 256 256 256 255 253 252 251 252 251 250 248 246 247 247 244 242 241 240 243 245 246 248 246 243 242 242 244 243 243 243 243 242 241 242
251 248 254 252 250 247 249 246 247 249 249 247 248 250 252 252 254 250 251 254 255 255 254 255 254 253 253 253 252 248 246 245 245 241 242 243 242 242 241 242 244 254 248 246 246 245 243 243 243 243 243 244 244 243
249 248 250 250 246 246 244 247 247 247 247 245 249 249 249 247 247 247 250 251 253 254 254 252 251 252 249 247 246 244 241 241 248 247 246 246 245 248 243 243 244 246 246 246 254 253 248 247 245 245 245 246 246 242
250 246 248 243 247 247 246 244 246 244 242 243 243 245 246 248 247 248 249 251 252 253 253 252 251 247 246 246 246 245 240 239 240 245 247 247 248 244 243 243 244 245 246 245 249 249 254 248 249 246 247 247 245 244
246 245 245 242 245 244 245 244 242 241 241 242 240 245 246 246 248 248 247 248 250 253 252 250 248 245 245 245 241 242 247 243 241 241 240 242 243 242 243 244 244 243 245 246 246 246 248 248 247 247 249 249 249 248
245 244 246 247 247 245 241 243 242 243 243 245 244 242 245 247 248 248 251 247 251 252 252 251 249 248 247 245 243 244 247 246 245 245 245 245 245 245 244 244 245 244 246 249 249 248 247 248 249 250 250 250 250 249
245 242 240 242 245 246 244 245 244 246 244 243 244 240 242 246 249 251 251 249 251 250 251 252 253 251 247 243 242 242 244 243 245 251 254 255 254 252 246 247 246 246 249 250 250 249 249 249 250 250 250 249 248 247
Wind_Speed
22 36 36 35 32 31 31 29 28 27 24 22 23 21 20 18 16 7 3 4 5 3 5 4 5 5 2 3 5 6 6 5 4 2 4 5 4 6 3 7 5 7 8 10 8 15 21 17 7 13 18 10 8 9
23 37 37 35 33 31 31 29 27 27 25 23 23 21 19 19 16 11 3 3 3 2 6 3 4 5 8 8 7 2 7 6 5 4 1 2 3 1 4 16 11 7 9 9 9 9 7 4 9 9 6 11 9 6
22 36 36 36 35 33 31 30 28 27 25 23 24 21 20 19 17 9 4 4 4 3 5 4 7 6 5 10 7 5 4 6 3 5 4 4 8 4 3 8 8 6 4 6 5 8 20 19 17 10 7 8 8 10
22 37 35 36 35 33 31 30 28 26 25 23 22 20 19 18 17 10 4 4 4 4 4 9 2 5 4 5 8 7 7 2 5 3 3 4 4 6 5 9 10 7 1 6 7 15 12 14 14 9 9 9 9 9
19 35 36 35 35 33 30 29 29 28 25 23 21 19 18 17 17 7 4 3 3 7 5 5 5 6 3 5 8 5 5 4 2 3 5 6 4 4 7 3 11 10 16 9 13 17 13 14 10 6 7 9 9 8
28 35 37 35 33 32 31 29 28 27 25 23 20 18 18 16 20 5 2 2 3 3 2 4 4 4 4 3 2 2 3 3 3 4 4 5 6 4 4 8 9 11 4 3 7 7 8 8 5 13 9 10 11 11
26 33 37 34 33 30 29 28 27 26 24 23 20 19 17 24 5 3 6 4 8 4 4 4 6 4 1 2 2 1 1 3 3 3 5 9 8 11 9 18 13 7 5 3 7 12 4 9 8 14 12 13 12 9
32 34 34 32 30 29 28 27 27 27 26 22 19 16 19 18 11 5 4 14 7 5 4 1 6 5 1 2 3 2 3 2 4 4 3 3 2 3 7 4 6 8 10 2 11 8 8 9 8 6 7 9 11 9
28 34 33 33 31 30 29 28 29 29 24 21 23 22 8 5 3 2 14 10 3 5 4 3 4 6 3 3 0 4 2 4 1 4 4 4 1 4 4 5 6 6 4 10 12 7 3 5 7 9 10 11 10 11
34 35 33 32 30 29 31 30 31 28 30 28 7 4 3 2 12 7 6 4 5 4 2 3 1 3 3 2 4 2 2 4 2 6 2 2 2 9 8 7 6 5 5 6 8 11 16 16 13 14 11 9 8 11
34 32 30 30 30 31 32 33 32 35 18 4 4 3 2 1 2 3 3 4 3 5 1 4 4 2 3 2 4 4 3 3 3 6 4 2 2 4 5 5 7 7 6 6 4 7 8 10 13 14 15 12 12 12
34 32 31 31 32 34 36 36 34 8 3 9 11 7 3 4 4 6 1 4 2 6 4 3 4 4 3 1 1 3 3 2 6 1 1 2 3 4 7 8 7 7 6 7 3 8 10 9 8 10 10 11 10 11
33 33 32 31 35 37 38 31 25 35 20 5 6 6 4 3 6 6 4 6 2 3 4 1 3 3 3 0 2 3 5 5 1 1 2 2 3 8 11 7 5 5 5 5 7 7 8 9 8 5 9 7 9 9
33 32 32 38 37 37 32 37 32 13 7 5 5 4 4 1 4 6 6 6 5 3 2 2 2 1 2 0 2 4 5 3 3 1 2 2 9 12 9 9 8 9 6 5 8 8 9 8 9 8 5 6 7 8
33 32 37 36 37 35 33 26 14 5 5 4 5 4 3 3 0 3 2 2 3 2 2 3 3 2 2 2 2 4 4 4 3 3 3 7 11 10 11 11 8 10 7 7 5 6 8 8 6 6 4 6 6 6
33 33 22 38 36 35 26 12 6 4 4 5 5 4 2 4 4 3 1 2 2 1 2 3 1 3 3 3 2 3 5 3 4 4 7 8 10 10 8 7 7 6 6 7 7 6 7 6 6 6 4 5 5 6
19 9 37 38 34 27 16 6 4 6 5 4 1 2 3 3 4 3 3 3 1 3 0 3 3 5 3 2 1 2 1 5 6 8 7 9 10 10 5 6 6 6 6 7 5 6 6 6 3 4 5 5 5 5
22 26 37 35 21 10 4 5 5 5 5 1 4 2 2 2 3 2 2 2 2 1 2 2 1 3 2 2 2 0 2 4 4 5 7 9 7 8 6 6 7 6 6 6 6 5 5 6 5 4 5 4 3 6
21 21 31 24 9 7 5 4 4 5 1 1 1 2 3 1 1 1 0 2 1 1 2 2 3 0 2 2 3 3 3 2 7 7 7 6 5 8 8 6 6 5 6 5 6 4 3 5 4 4 4 4 5 5
32 24 19 17 8 5 6 3 3 5 3 2 3 3 3 2 1 1 2 3 1 2 5 3 2 1 1 2 3 3 4 5 5 7 6 5 5 7 7 6 5 6 5 5 4 6 4 4 5 5 5 5 4 5
14 5 13 8 5 8 6 2 5 2 2 4 2 2 0 3 3 3 2 2 4 3 2 1 1 1 2 2 3 2 3 3 4 3 7 7 7 6 5 6 5 4 4 5 5 5 7 5 5 5 5 5 4 4
3 12 5 6 6 5 6 3 4 1 4 2 3 2 3 2 2 2 2 4 2 2 1 1 2 1 2 3 3 4 2 3 5 4 5 5 4 5 5 5 5 4 4 4 4 4 3 3 3 3 3 3 4 4
9 6 6 6 7 7 2 3 5 5 4 2 3 4 3 2 1 2 3 1 2 2 1 1 3 3 4 4 2 3 3 4 3 2 4 4 3 3 3 3 3 3 3 4 2 2 2 5 4 3 3 4 3 3
11 8 6 4 4 1 3 5 3 4 4 5 4 2 2 1 3 3 2 1 2 2 2 3 2 3 3 3 2 2 4 3 4 2 3 4 3 2 2 2 3 3 2 2 1 1 2 2 3 3 3 3 3 2
9 8 5 5 4 6 6 5 5 5 2 1 3 2 2 2 3 3 1 2 2 0 2 3 3 2 0 2 2 3 2 2 3 3 2 3 3 3 3 2 1 2 4 4 4 3 2 2 3 3 3 2 2 3
8 5 4 2 3 5 3 3 1 3 3 2 1 3 2 3 4 0 2 1 1 1 1 2 2 3 2 1 2 4 4 2 2 2 4 1 0 2 2 2 3 5 2 1 1 2 4 4 3 4 3 3 2 2
5 3 3 1 3 4 4 2 2 4 3 2 2 2 3 4 1 3 2 1 1 2 2 2 2 2 4 4 4 3 3 0 3 4 2 1 2 4 4 2 3 4 4 3 2 2 2 2 2 2 3 3 3 2
3 2 4 3 4 2 5 3 3 2 2 2 3 3 4 5 3 2 2 1 2 4 4 4 3 3 4 4 2 3 3 3 3 1 2 2 2 2 3 3 4 9 3 3 3 1 1 2 2 2 2 3 3 3
4 3 3 5 4 6 3 2 2 2 2 2 4 1 2 2 2 1 3 3 4 2 2 4 3 4 3 2 2 3 3 3 4 4 2 3 4 4 2 3 3 3 3 3 5 2 5 4 4 5 5 5 4 3
3 1 5 3 4 2 3 3 1 2 0 2 2 2 3 2 2 1 2 3 3 3 3 3 2 3 2 4 4 4 1 1 2 3 3 2 4 4 4 4 4 4 3 3 3 4 6 3 4 3 3 3 2 3
0 4 5 4 2 3 3 2 1 1 2 2 1 3 2 2 3 1 2 2 3 3 2 4 3 1 2 3 2 3 4 2 1 2 4 4 4 4 4 4 3 3 3 3 3 3 3 2 2 4 6 7 7 5
4 3 4 3 1 3 3 2 1 2 4 3 4 2 3 3 3 4 3 3 3 3 4 3 4 4 3 3 3 4 7 6 5 4 6 3 4 4 4 4 3 3 3 4 4 3 3 5 5 5 6 9 9 9
3 3 3 3 4 4 3 4 5 3 4 4 3 0 1 1 2 3 2 2 2 3 4 5 5 4 4 4 4 4 5 4 7 9 10 9 8 6 3 3 3 3 5 5 5 4 6 7 8 8 9 9 9 10
Wind_Direction
241 197 197 188 187 183 182 182 178 177 181 182 177 182 187 184 184 135 147 169 126 158 271 183 184 147 53 125 154 246 33 336 39 132 157 227 231 219 176 240 208 242 259 256 254 258 265 226 273 206 243 260 245 248
260 193 194 185 187 182 179 180 179 175 176 179 179 182 183 184 192 138 135 160 107 159 229 247 226 215 196 193 148 245 186 190 195 95 317 70 320 3 220 274 266 244 199 249 244 249 273 253 220 239 204 232 248 226
260 191 190 182 186 179 178 177 178 174 174 179 180 179 182 185 188 155 123 126 74 59 318 19 251 253 214 217 176 169 289 194 207 177 181 229 229 134 208 251 254 264 206 233 320 271 249 273 289 272 231 214 227 243
241 182 183 180 182 179 175 174 172 172 173 178 176 178 182 186 190 127 135 153 95 111 121 278 307 244 215 187 191 202 202 9 126 125 212 204 196 203 227 240 241 223 67 240 260 280 277 250 247 258 275 259 249 253
228 177 176 179 180 175 171 170 169 170 171 172 175 177 180 185 161 105 89 164 143 131 189 270 304 262 308 190 203 193 168 136 147 196 217 227 219 225 237 225 247 237 253 255 265 277 278 280 300 335 288 289 286 270
202 182 177 175 173 170 173 169 169 168 170 167 170 172 178 166 125 92 43 298 171 113 94 284 281 331 343 35 121 167 148 178 182 184 212 238 227 203 244 238 248 252 277 339 285 339 287 296 86 21 347 343 342 342
182 176 171 169 166 164 159 165 166 164 158 163 168 170 167 141 100 132 184 187 161 85 95 320 317 287 185 70 334 46 128 209 213 229 220 239 239 226 250 265 278 20 345 1 26 341 328 22 335 335 341 332 330 313
183 169 160 156 163 157 153 158 162 159 159 158 158 156 143 124 98 56 358 133 103 99 82 123 273 350 93 294 274 207 206 191 228 223 286 218 306 187 245 21 12 358 329 135 0 344 291 317 320 327 337 330 331 326
176 157 158 162 158 153 158 157 151 150 147 139 110 95 61 37 76 106 76 73 54 122 170 124 154 258 356 274 250 347 187 243 268 224 238 122 252 218 34 16 14 15 8 319 318 299 291 314 307 325 333 332 324 317
150 149 144 146 148 150 147 148 147 141 128 116 77 70 67 9 114 91 14 32 14 338 12 204 30 276 101 357 288 36 205 227 246 239 91 141 109 88 41 14 358 1 351 330 344 344 340 328 328 324 316 301 273 286
141 139 143 148 148 148 146 140 137 127 107 66 92 89 228 297 74 42 61 78 328 340 306 236 172 203 266 144 223 228 241 249 252 265 154 240 109 90 26 2 345 339 331 327 280 290 286 285 301 310 313 308 302 297
136 138 140 143 141 140 139 137 132 99 121 132 114 103 88 47 43 85 286 334 94 233 291 149 241 209 287 58 139 280 247 242 253 347 56 282 76 27 346 341 341 327 313 304 290 301 309 302 284 289 288 293 296 300
135 135 138 138 136 136 138 132 110 119 108 72 65 75 88 316 50 127 214 291 305 237 251 306 294 196 350 74 247 278 264 239 115 218 189 72 26 345 340 327 314 299 308 312 309 304 294 295 294 256 289 295 301 299
134 136 134 129 134 135 128 130 133 111 78 88 115 96 136 300 246 186 184 193 236 149 194 158 279 175 249 193 282 272 252 276 267 309 43 40 349 331 328 324 324 319 319 300 300 298 298 293 296 297 298 314 321 324
128 129 129 133 131 132 134 125 96 57 86 97 91 160 192 223 61 214 209 35 271 164 84 23 7 78 310 348 262 290 308 278 39 6 349 333 325 325 327 331 341 325 314 309 291 295 298 299 300 305 338 343 339 338
129 125 133 127 129 128 125 102 50 77 53 82 67 89 330 62 308 1 21 256 224 140 57 67 112 45 269 177 285 266 334 315 337 337 320 319 325 324 319 323 303 296 299 296 297 288 295 304 318 331 8 355 353 2
100 102 121 120 123 120 94 74 61 47 102 66 51 36 127 111 166 202 154 232 264 71 192 93 64 227 288 231 208 31 318 318 328 315 317 318 317 315 304 302 305 306 309 307 295 300 309 307 331 14 16 359 0 8
113 120 122 121 114 86 45 42 78 78 72 19 96 247 63 116 120 320 290 335 71 140 74 186 146 16 285 287 307 251 317 320 295 304 309 312 315 323 311 305 318 310 311 310 323 327 350 2 11 14 5 1 25 34
117 119 124 125 103 95 88 25 56 93 98 131 69 41 82 155 278 83 188 307 148 188 81 44 77 277 288 54 307 330 306 293 313 317 306 303 311 321 316 315 309 315 321 328 338 348 11 11 9 3 15 27 42 27
114 108 90 70 67 80 68 15 50 90 116 197 56 36 103 143 218 37 1 7 51 59 41 53 141 224 331 49 293 296 298 309 318 314 316 329 331 331 337 332 338 337 342 348 7 19 14 21 21 19 26 30 36 29
86 56 56 61 47 60 84 29 48 121 133 91 239 82 69 18 36 35 357 328 57 56 50 309 94 275 301 262 275 284 294 315 308 273 306 318 335 333 335 341 347 354 5 11 19 20 26 24 11 13 23 25 21 26
56 52 63 33 70 43 73 358 116 212 72 175 46 61 59 46 9 339 279 54 64 235 189 283 291 311 318 306 285 276 280 302 297 295 312 309 322 346 350 348 348 13 20 19 25 28 16 360 359 13 30 10 27 28
69 45 46 36 71 42 287 34 71 359 90 281 26 53 3 20 252 326 70 128 224 236 243 269 269 250 246 277 331 339 320 328 311 307 335 322 310 325 339 348 358 3 12 25 10 24 5 358 12 42 27 35 36 27
38 51 48 58 56 144 8 18 29 50 39 38 62 52 332 258 317 58 83 294 259 285 0 325 307 336 11 18 13 331 343 323 318 337 15 335 329 316 347 347 2 345 294 279 28 22 13 9 9 41 40 64 43 68
69 355 50 12 356 64 44 14 354 50 78 327 78 341 307 19 70 56 116 273 332 27 3 341 350 360 10 296 309 302 311 26 330 315 10 357 300 326 358 3 357 313 334 26 360 6 339 4 40 58 48 65 46 356
72 321 64 210 308 98 192 85 110 177 131 52 254 267 30 80 60 272 250 263 317 8 353 345 322 325 310 31 311 325 300 312 54 53 289 12 86 151 279 344 341 309 47 90 326 346 339 348 0 5 357 354 356 6
83 348 324 244 123 106 59 23 69 88 83 118 266 25 67 67 279 256 296 330 319 20 319 287 238 228 252 290 282 272 296 220 177 213 230 234 232 195 168 186 279 260 326 328 331 200 234 254 277 289 293 307 275 259
139 90 117 295 53 18 122 74 72 112 231 256 76 54 126 170 208 250 235 318 323 312 297 286 241 236 265 269 286 323 320 314 294 340 335 311 273 267 267 267 265 292 300 279 266 233 190 200 227 247 251 264 268 235
40 320 79 35 31 40 60 114 186 245 223 111 116 165 218 236 234 304 313 320 300 285 336 346 319 336 332 358 35 31 13 8 45 56 47 298 334 302 340 329 320 321 327 326 319 199 201 192 209 219 233 239 255 252
322 53 87 57 76 35 264 167 243 260 219 178 161 28 17 356 272 305 318 334 0 345 319 306 315 32 356 360 325 334 341 43 86 143 160 241 244 290 318 315 314 311 317 329 321 314 328 13 333 357 321 309 307 302
76 57 68 58 112 251 235 255 336 37 33 39 343 113 169 256 317 305 308 295 292 296 5 355 332 346 16 353 358 347 326 264 332 289 236 256 272 275 279 280 274 284 300 298 303 298 297 294 283 295 302 300 295 282
33 73 116 83 307 289 22 56 357 58 344 45 344 6 9 49 44 312 329 350 356 13 351 334 335 303 256 247 245 242 247 279 289 288 299 276 273 264 264 275 284 282 292 294 290 280 271 278 292 288 291 292 285 283
51 51 54 74 27 10 317 73 20 10 25 27 354 6 191 133 127 267 292 215 249 273 298 301 287 267 265 269 258 273 266 257 275 282 288 273 254 260 254 274 283 288 295 291 288 286 288 285 286 287 286 284 289 287